ALPHASAT                
1 39215U 13038A   19260.84481653  .00000133  00000-0  00000-0 0  9999
2 39215   2.2933  22.5045 0002224 157.1670 145.7969  1.00272195 19330
INSAT-3D                
1 39216U 13038B   19261.56957302 -.00000159  00000-0  00000+0 0  9997
2 39216   0.0396 260.0874 0001397 291.2003  93.0353  1.00271860 22591
ARIANE 5 DEB [SYLDA]    
1 39217U 13038C   19261.27337689  .00321642  21591-6  32682-2 0  9996
2 39217   3.4803  57.4100 5508904 190.1038 151.4260  4.92745758 86523
ARIANE 5 R/B            
1 39218U 13038D   19261.05839711  .00010996  00000-0  10025-2 0  9996
2 39218   2.9618 127.3687 7065403  54.8988 352.5063  2.58140049 55010